NT9M-13 Weather Reports


Display with metric or nautical units.
time (UTC)temp
F
wind
direction
speed
MPH
gust
MPH
rain 1hr
in
rain 24hr
in
rain mn
in
humidity
%
barometer
mb
20260509010935 58 222 0.0 6.0 0.00 0.01 0.00 83 1007.5
20260509005935 59 170 0.0 3.0 0.00 0.01 0.00 82 1007.5
20260509004935 59 157 0.0 6.0 0.00 0.01 0.00 82 1007.4
20260509003935 59 179 1.0 8.0 0.00 0.01 0.00 82 1007.3
20260509002935 60 236 2.0 6.0 0.00 0.01 0.00 80 1007.2
20260509001935 61 275 1.0 3.0 0.00 0.01 0.00 79 1007.2
20260509000935 61 138 1.0 6.0 0.00 0.01 0.00 77 1007.4
20260508235935 61 189 0.0 5.0 0.00 0.01 0.00 77 1007.3
20260508234935 62 176 0.0 5.0 0.00 0.01 0.00 76 1007.4
20260508233935 62 157 0.0 6.0 0.00 0.01 0.00 75 1007.3
20260508231935 62 260 1.0 6.0 0.00 0.01 0.00 74 1007.5
20260508230935 62 175 1.0 6.0 0.00 0.01 0.00 74 1007.5
20260508225935 63 289 1.0 6.0 0.00 0.01 0.00 73 1007.6
20260508224935 63 225 2.0 7.0 0.00 0.01 0.00 73 1007.7
20260508223935 63 288 0.0 8.0 0.00 0.01 0.00 73 1007.7
20260508222936 63 270 2.0 7.0 0.00 0.01 0.00 72 1007.8
20260508221935 63 277 4.0 9.0 0.00 0.01 0.00 71 1007.9
20260508220935 63 293 2.0 7.0 0.00 0.01 0.00 71 1007.8
20260508215935 63 263 1.0 9.0 0.00 0.01 0.00 70 1007.8
20260508214935 63 265 2.0 7.0 0.00 0.01 0.00 70 1007.9
20260508213935 63 185 5.0 9.0 0.00 0.01 0.00 68 1008.0
20260508210936 63 281 2.0 7.0 0.00 0.01 0.00 68 1008.2
20260508204936 64 251 4.0 8.0 0.00 0.01 0.00 66 1008.2
20260508203936 64 276 2.0 8.0 0.00 0.01 0.00 67 1008.3
20260508202935 64 293 5.0 8.0 0.00 0.01 0.00 67 1008.4
20260508201936 64 287 3.0 9.0 0.00 0.01 0.00 66 1008.5
20260508200935 65 260 3.0 10.0 0.00 0.01 0.00 66 1008.6
20260508195935 65 261 2.0 8.0 0.00 0.01 0.00 65 1008.7
20260508194936 65 207 3.0 9.0 0.00 0.01 0.00 67 1009.0
20260508193935 65 250 2.0 12.0 0.00 0.01 0.00 66 1008.9
20260508192935 65 282 5.0 9.0 0.00 0.01 0.00 65 1009.2
20260508191936 66 228 6.0 13.0 0.00 0.01 0.00 66 1009.2
20260508190936 66 296 5.0 9.0 0.00 0.01 0.00 65 1009.6
20260508184935 65 251 2.0 8.0 0.00 0.01 0.00 64 1009.7
20260508183936 65 195 1.0 8.0 0.00 0.01 0.00 62 1009.9
20260508181935 65 255 3.0 8.0 0.00 0.01 0.00 60 1010.0
20260508180936 65 202 2.0 7.0 0.00 0.01 0.00 63 1010.2
20260508175936 64 237 2.0 8.0 0.00 0.01 0.00 63 1010.3
20260508174936 64 272 1.0 7.0 0.00 0.01 0.00 68 1010.5
20260508172936 64 235 1.0 6.0 0.00 0.01 0.00 66 1010.7
20260508171936 64 272 1.0 10.0 0.00 0.01 0.00 65 1010.8
20260508170936 63 263 0.0 8.0 0.00 0.01 0.00 64 1010.9
20260508164935 63 253 3.0 9.0 0.00 0.01 0.00 61 1011.2
20260508163935 63 253 2.0 7.0 0.00 0.01 0.00 59 1011.3
20260508161935 62 260 4.0 7.0 0.00 0.01 0.00 70 1011.5
20260508160935 60 261 1.0 7.0 0.00 0.01 0.00 72 1011.5
20260508155936 60 285 3.0 8.0 0.00 0.01 0.00 75 1011.7
20260508154936 60 161 0.0 7.0 0.00 0.01 0.00 75 1011.3
20260508153936 59 178 0.0 6.0 0.00 0.01 0.00 78 1011.4
20260508152936 58 186 2.0 6.0 0.00 0.01 0.00 80 1011.4
20260508151936 58 286 2.0 7.0 0.00 0.01 0.00 79 1011.5
20260508150936 57 209 3.0 7.0 0.00 0.01 0.00 82 1011.4
20260508145936 56 47 3.0 8.0 0.00 0.01 0.00 83 1011.7
20260508144936 56 261 3.0 8.0 0.00 0.01 0.00 83 1011.8
20260508143936 55 283 2.0 8.0 0.00 0.01 0.00 86 1011.8
20260508142936 54 295 1.0 7.0 0.00 0.01 0.00 87 1011.8
20260508141936 54 263 1.0 7.0 0.00 0.01 0.00 87 1011.8
20260508140936 54 184 1.0 7.0 0.00 0.01 0.00 88 1012.1
20260508134936 54 193 1.0 5.0 0.00 0.01 0.00 85 1011.8
20260508133936 54 220 0.0 6.0 0.00 0.01 0.00 86 1012.0
20260508132936 53 206 0.0 0.0 0.00 0.01 0.00 87 1011.9
20260508131936 52 206 0.0 2.0 0.00 0.01 0.00 89 1012.1
20260508130936 52 206 0.0 0.0 0.00 0.01 0.00 89 1012.0
20260508125936 52 206 0.0 0.0 0.00 0.01 0.00 90 1012.0
20260508124936 51 206 0.0 0.0 0.00 0.01 0.00 91 1012.0
20260508122936 50 206 0.0 0.0 0.00 0.01 0.00 91 1012.0
20260508121936 49 206 0.0 0.0 0.00 0.01 0.00 92 1011.9
20260508120936 49 206 0.0 0.0 0.00 0.01 0.00 92 1011.9
20260508115937 48 206 0.0 0.0 0.00 0.01 0.00 93 1011.9
20260508114936 48 206 0.0 0.0 0.00 0.01 0.00 93 1011.9
20260508113936 47 206 0.0 0.0 0.00 0.01 0.00 92 1011.8
20260508112936 47 206 0.0 0.0 0.00 0.01 0.00 92 1011.9
20260508111937 47 206 0.0 0.0 0.00 0.01 0.00 92 1011.7
20260508110936 47 206 0.0 0.0 0.00 0.01 0.00 92 1011.7
20260508105936 47 206 0.0 0.0 0.00 0.01 0.00 92 1011.7
20260508104936 47 206 0.0 0.0 0.00 0.01 0.01 92 1011.7
20260508103937 47 206 0.0 0.0 0.00 0.01 0.01 92 1011.7
20260508101936 47 206 0.0 0.0 0.00 0.01 0.01 92 1011.6
20260508100936 47 206 0.0 0.0 0.00 0.01 0.01 92 1011.5
20260508095936 47 206 0.0 0.0 0.00 0.01 0.01 92 1011.7
20260508094936 47 206 0.0 0.0 0.00 0.01 0.01 92 1011.9
20260508092937 47 206 0.0 0.0 0.00 0.01 0.01 92 1011.7
20260508091937 47 206 0.0 0.0 0.00 0.01 0.01 92 1011.8
20260508085937 47 206 0.0 0.0 0.00 0.01 0.01 92 1011.8
20260508084937 47 206 0.0 2.0 0.00 0.01 0.01 92 1011.6
20260508083936 47 178 0.0 0.0 0.00 0.01 0.01 92 1011.7
20260508082937 47 178 0.0 0.0 0.00 0.01 0.01 92 1011.7
20260508081937 47 178 0.0 0.0 0.00 0.01 0.01 92 1011.8
20260508080936 47 178 0.0 3.0 0.00 0.01 0.01 92 1011.8
20260508074937 47 272 0.0 0.0 0.00 0.01 0.01 92 1011.8
20260508073936 47 272 0.0 0.0 0.00 0.01 0.01 92 1011.8
20260508071937 47 272 0.0 0.0 0.00 0.01 0.01 92 1011.8
20260508065936 48 272 0.0 7.0 0.00 0.01 0.01 92 1011.9
20260508064936 48 182 0.0 6.0 0.00 0.01 0.01 92 1011.9
20260508063937 48 246 0.0 8.0 0.00 0.01 0.01 92 1011.9
20260508062936 48 270 2.0 7.0 0.00 0.01 0.01 92 1012.1
20260508061936 48 232 0.0 9.0 0.00 0.01 0.01 92 1012.1
20260508060937 48 311 0.0 6.0 0.00 0.01 0.01 92 1012.1
20260508055937 48 251 1.0 6.0 0.00 0.01 0.01 92 1012.1
20260508054937 48 227 3.0 10.0 0.00 0.01 0.01 92 1012.2
20260508053936 48 195 0.0 5.0 0.00 0.01 0.01 91 1012.2
20260508052937 48 188 0.0 0.0 0.00 0.01 0.01 91 1012.2
20260508051937 48 188 0.0 5.0 0.00 0.01 0.01 90 1012.3
20260508050937 48 267 0.0 0.0 0.00 0.01 0.01 90 1012.2
20260508044937 48 267 0.0 0.0 0.00 0.01 0.01 90 1012.2
20260508043937 48 267 0.0 0.0 0.00 0.01 0.01 90 1012.3
20260508042937 48 267 0.0 0.0 0.00 0.01 0.01 89 1012.3
20260508040937 48 267 0.0 0.0 0.00 0.01 0.01 90 1012.3
20260508035937 48 267 0.0 0.0 0.00 0.01 0.01 90 1012.3
20260508033936 49 267 1.0 6.0 0.00 0.01 0.01 90 1012.2
20260508032937 49 154 0.0 6.0 0.00 0.01 0.01 89 1012.1
20260508031937 49 193 0.0 0.0 0.00 0.01 0.01 89 1012.1
20260508025937 50 193 0.0 0.0 0.00 0.01 0.01 87 1012.2
20260508022937 50 209 0.0 5.0 0.01 0.01 0.01 87 1012.5
20260508021937 51 246 0.0 5.0 0.01 0.01 0.01 86 1012.5
20260508015937 51 202 0.0 8.0 0.01 0.01 0.01 85 1012.3
20260508013937 52 315 1.0 9.0 0.01 0.01 0.01 80 1012.8
20260508011937 53 169 0.0 0.0 0.00 0.00 0.00 72 1012.2